Terug naar catalogus

AETHER-5

ActiefCommunicatieSSO
NORAD 67376·PAYLOAD·🇨🇦 Canada

Gelanceerd Jan 11, 2026 vanaf Vandenberg Space Force Base

Loading…

Volgende Passages (komende 24 uur)

TLE

VersSource: Space-Track

Epoch: Sep 14, 2026, 10:10 UTC

1 67376U 26004P   26257.42368855  .00000375  00000-0  49269-4 0  9993
2 67376  97.8106 254.3540 0000558 168.0670 192.0559 14.85805012 36544

Volg AETHER-5 in realtime met AllMySat

Download on the App Store